Погода в Яссах

Румыния     47°09′19″N   27°35′44″E
темп.,
°C
ветер,
м/с
пор.,
м/с
влажн.,
%
обл.,
%
осадки,
мм/ч
давл.,
гПа
погр.,
м
23 мая, пн
пн2300:00+11сз227997 0.0 101018
03:00+10зсз1179100 0.0 101116
06:00+10зсз248599 0.0 1010153
09:00+14сз686654 0.0 10101163
12:00+14сз786877 0.4 1011987
15:00+16ссз565894 1.1 10111585
18:00+17ссз675819 0.3 10101452
21:00+12сз22775 0.3 101213
24 мая, вт
вт2400:00+10з22885 0.0 101311
03:00+9з11902 0.0 101310
06:00+8сз11910 0.0 101310
09:00+14сз11715 0.0 1014448
12:00+19в11525 0.0 10141380
15:00+21вюв114238 0.0 10142085
18:00+21ююв224446 0.0 10131709
21:00+15вюв37675 0.0 101497
25 мая, ср
ср2500:00+13юв227087 0.0 101623
03:00+12вюв22769 0.0 101621
06:00+11вюв23865 0.0 101758
09:00+18ююв59649 0.0 1017702
12:00+22ю81047100 0.0 10171467
15:00+23ю894426 0.0 10161425
18:00+23ююв6105220 0.0 10151117
21:00+18ююв613599 0.2 1015429
26 мая, чт
чт2600:00+15ююв51466100 0.1 1015436
03:00+14ю3575100 0.1 101598
06:00+14зюз1189100 0.3 101613
09:00+17сз5781100 0.4 1018791
12:00+18сз5779100 0.1 1019668
15:00+22сз34566 0.1 10191209
18:00+24сз2451100 0.0 10181522
21:00+20сз2261100 0.0 101815
27 мая, пт
пт2700:00+19ссв116155 0.0 101911
03:00+16ююз117213 0.0 101911
06:00+15юз117840 0.0 101911
09:00+20зюз237114 0.0 1019371
12:00+25зсз33500 0.2 10181646
15:00+27ююв23385 0.2 10152116
18:00+27ю35418 0.0 10121779
21:00+20юв22675 0.0 101122